Weather History for Anoka County, MN

Change the Weather History Date:

Wednesday, February 6, 2013

  Actual Average Record
Temperature  
Mean Temperature 16 °F -  
Max Temperature 26 °F 25 °F 46 °F (2002)
Min Temperature 5 °F 10 °F -9 °F (2014)
Degree Days  
Heating Degree Days 50    
Moisture  
Dew Point 13 °F    
Average Humidity 88    
Maximum Humidity 93    
Minimum Humidity 79    
Precipitation  
Precipitation 0.00 in - - ()
Sea Level Pressure  
Sea Level Pressure 30.02 in    
Wind  
Wind Speed 2 mph (East)    
Max Wind Speed 12 mph    
Max Gust Speed -    
Visibility 8 miles    
Events Snow    
Averages and records for this station are not official NWS values.
T = Trace of Precipitation, MM = Missing Value Source: NWS Daily Summary

Daily Weather History Graph

Daily Weather History Graph

Search for Another Location

Airport:

Trip Planner

Search our weather history database for the weather conditions in past years. The results will help you decide how hot, cold, wet, or windy it might be!

Date:

Astronomy

Feb. 06, 2013 Rise Set
Actual Time 7:26 AM CST 5:28 PM CST
Civil Twilight 6:55 AM CST 5:59 PM CST
Nautical Twilight 6:20 AM CST 6:33 PM CST
Astronomical Twilight 5:46 AM CST 7:08 PM CST
Moon 4:16 AM CST (2/6) 1:41 PM CST (2/6)
Length of Visible Light 11h 03m
Length of Day
10h 01m
Waning Crescent, 17% of the Moon is Illuminated
Feb 6
Waning Crescent
Feb 10
New
Feb 17
First Quarter
Feb 25
Full
Mar 4
Last Quarter

Hourly Weather History & Observations

Time (CST) Temp. Windchill Dew Point Humidity Pressure Visibility Wind Dir Wind Speed Gust Speed Precip Events Conditions
12:14 AM 6.8 °F - 5.0 °F 92% 30.06 in 10.0 mi Calm Calm - N/A   Clear
12:34 AM 6.8 °F - 5.0 °F 92% 30.06 in 10.0 mi Calm Calm - N/A   Clear
12:54 AM 8.6 °F - 6.8 °F 92% 30.06 in 7.0 mi Calm Calm - N/A   Clear
1:14 AM 6.8 °F - 3.2 °F 85% 30.07 in 10.0 mi Calm Calm - N/A   Clear
1:34 AM 5.0 °F - 1.4 °F 85% 30.07 in 10.0 mi Calm Calm - N/A   Scattered Clouds
1:54 AM 10.4 °F - 8.6 °F 92% 30.07 in 10.0 mi Calm Calm - N/A   Overcast
2:34 AM 12.2 °F - 10.4 °F 92% 30.08 in 10.0 mi Calm Calm - N/A   Overcast
2:54 AM 12.2 °F - 10.4 °F 92% 30.07 in 10.0 mi Calm Calm - N/A   Overcast
3:14 AM 10.4 °F - 8.6 °F 92% 30.07 in 10.0 mi Calm Calm - N/A   Overcast
3:34 AM 10.4 °F - 8.6 °F 92% 30.06 in 10.0 mi Calm Calm - N/A   Scattered Clouds
3:54 AM 8.6 °F - 6.8 °F 92% 30.06 in 7.0 mi Calm Calm - N/A   Clear
4:14 AM 6.8 °F - 3.2 °F 85% 30.04 in 7.0 mi Calm Calm - N/A   Clear
4:34 AM 5.0 °F - 1.4 °F 85% 30.05 in 10.0 mi Calm Calm - N/A   Clear
4:54 AM 6.8 °F - 3.2 °F 85% 30.04 in 7.0 mi Calm Calm - N/A   Clear
5:14 AM 6.8 °F - 3.2 °F 85% 30.05 in 10.0 mi Calm Calm - N/A   Clear
5:34 AM 6.8 °F -2.0 °F 5.0 °F 92% 30.07 in 10.0 mi South 4.6 mph - N/A   Mostly Cloudy
6:14 AM 10.4 °F 4.0 °F 6.8 °F 85% 30.07 in 10.0 mi SSE 3.5 mph - N/A   Scattered Clouds
6:34 AM 10.4 °F 2.2 °F 8.6 °F 92% 30.07 in 10.0 mi SSE 4.6 mph - N/A   Clear
6:45 AM 10.4 °F 0.8 °F 8.6 °F 92% 30.06 in 10.0 mi SSE 5.8 mph - N/A   Mostly Cloudy
7:45 AM 12.2 °F 6.1 °F 10.4 °F 92% 30.06 in 10.0 mi SSE 3.5 mph - N/A   Overcast
8:45 AM 14.0 °F 2.9 °F 10.4 °F 86% 30.07 in 10.0 mi South 8.1 mph - N/A   Overcast
9:50 AM 15.8 °F 7.2 °F 10.4 °F 79% 30.06 in 7.0 mi ESE 5.8 mph - N/A Snow Light Snow
10:15 AM 15.8 °F 6.1 °F 10.4 °F 79% 30.06 in 1.0 mi ESE 6.9 mph - N/A Snow Light Snow
10:45 AM 15.8 °F 7.2 °F 12.2 °F 86% 30.06 in 0.5 mi ESE 5.8 mph - N/A Snow Snow
12:15 PM 17.6 °F 7.3 °F 15.8 °F 93% 30.00 in 7.0 mi East 8.1 mph - N/A Snow Light Snow
12:45 PM 19.4 °F 9.5 °F 15.8 °F 86% 29.97 in 10.0 mi East 8.1 mph - N/A   Overcast
1:45 PM 21.2 °F 10.1 °F 17.6 °F 86% 29.94 in 10.0 mi ENE 10.4 mph - N/A   Overcast
2:55 PM 23.0 °F 13.9 °F 19.4 °F 86% 29.93 in 10.0 mi East 8.1 mph - N/A   Overcast
3:55 PM 24.8 °F 14.0 °F 19.4 °F 80% 29.93 in 10.0 mi East 11.5 mph - N/A   Overcast
5:55 PM 21.2 °F 13.6 °F 17.6 °F 86% 29.94 in 8.0 mi East 5.8 mph - N/A   Scattered Clouds
7:55 PM 21.2 °F 13.6 °F 19.4 °F 93% 29.95 in 8.0 mi ENE 5.8 mph - N/A   Overcast
8:45 PM 24.8 °F 19.1 °F 21.2 °F 86% 29.96 in 8.0 mi ENE 4.6 mph - N/A   Overcast
9:14 PM 24.8 °F 17.9 °F 21.2 °F 86% 29.95 in 7.0 mi East 5.8 mph - N/A   Overcast
9:34 PM 26.6 °F 21.2 °F 23.0 °F 86% 29.96 in 7.0 mi East 4.6 mph - N/A   Overcast
9:54 PM 26.6 °F 20.0 °F 23.0 °F 86% 29.96 in 7.0 mi ENE 5.8 mph - N/A   Overcast
10:14 PM 26.6 °F 21.2 °F 23.0 °F 86% 29.97 in 7.0 mi NNE 4.6 mph - N/A   Overcast
10:34 PM 26.6 °F 21.2 °F 23.0 °F 86% 29.97 in 7.0 mi NE 4.6 mph - N/A   Overcast
10:54 PM 26.6 °F 22.6 °F 24.8 °F 93% 29.97 in 7.0 mi ENE 3.5 mph - N/A   Overcast
11:14 PM 26.6 °F 21.2 °F 24.8 °F 93% 29.97 in 7.0 mi NE 4.6 mph - N/A   Overcast
11:34 PM 26.6 °F 21.2 °F 24.8 °F 93% 29.97 in 7.0 mi NNE 4.6 mph - N/A   Overcast
11:54 PM 26.6 °F 19.1 °F 24.8 °F 93% 29.97 in 7.0 mi NNE 6.9 mph - N/A   Overcast